Погода в Уагадугу

Буркина-Фасо     12°21′28″N   1°31′12″W
темп.,
°C
ветер,
м/с
пор.,
м/с
влажн.,
%
обл.,
%
осадки,
мм/ч
давл.,
гПа
погр.,
м
4 декабря, сб
сб400:00+26св2319100 0.0 101166
03:00+24в2320100 0.0 101062
06:00+23всв3421100 0.0 101177
09:00+29всв461595 0.0 1013396
12:00+35всв439100 0.0 10112165
15:00+36всв328100 0.0 10082576
18:00+31св351184 0.0 1009164
21:00+28св3512100 0.0 1012103
5 декабря, вс
вс500:00+25ссв36120 0.0 101297
03:00+24ссв36133 0.0 1010103
06:00+23св36151 0.0 1011101
09:00+29св58115 0.0 1013444
12:00+35всв54884 0.0 10111717
15:00+36всв3378 0.0 10082233
18:00+30всв341095 0.0 100981
21:00+27ссв351116 0.0 101285
6 декабря, пн
пн600:00+25св36135 0.0 1011104
03:00+24ссв461365 0.0 1010109
06:00+23св47155 0.0 1011117
09:00+29св57114 0.0 1013412
12:00+35всв55836 0.0 10111726
15:00+36всв4385 0.0 10082223
18:00+31всв351110 0.0 1009108
21:00+28св341378 0.0 101275
7 декабря, вт
вт700:00+26св361438 0.0 101298
03:00+24св35153 0.0 101196
06:00+23св361724 0.0 1012107
09:00+29всв58117 0.0 1013424
12:00+35всв56835 0.0 10111551
15:00+36в4480 0.0 10082209
18:00+31в34110 0.0 100991
21:00+28всв33130 0.0 101156
8 декабря, ср
ср800:00+26св35150 0.0 101185
03:00+24всв35150 0.0 101083
06:00+23св35157 0.0 101297
09:00+29всв571047 0.0 1013388
12:00+35в5587 0.0 10111495
15:00+36в3385 0.0 10082145
18:00+30всв3411100 0.0 100971
21:00+27всв231319 0.0 101255